Time,TemperatureF,DewpointF,PressureIn,WindDirection,WindDirectionDegrees,WindSpeedMPH,WindSpeedGustMPH,Humidity,HourlyPrecipIn,Conditions,Clouds,dailyrainin,SoftwareType,DateUTC
2013-05-07 00:02:00,58.6,56.8,30.00,WSW,254,0.0,2.0,94,0.00,,,0.00,meteohub,2013-05-07 05:02:00,
2013-05-07 00:07:00,58.5,56.7,29.99,WSW,254,2.0,3.0,94,0.00,,,0.00,meteohub,2013-05-07 05:07:00,
2013-05-07 00:12:00,58.6,56.8,29.99,WSW,254,0.0,3.0,94,0.00,,,0.00,meteohub,2013-05-07 05:12:00,
2013-05-07 00:17:00,58.8,57.0,29.99,WSW,239,1.0,3.0,94,0.00,,,0.00,meteohub,2013-05-07 05:17:00,
2013-05-07 00:22:00,59.2,57.2,29.99,WSW,239,1.0,3.0,93,0.00,,,0.00,meteohub,2013-05-07 05:22:00,
2013-05-07 00:27:00,59.2,57.2,29.99,WSW,239,0.0,3.0,93,0.00,,,0.00,meteohub,2013-05-07 05:27:00,
2013-05-07 00:32:00,58.8,56.8,29.99,WSW,239,0.0,3.0,93,0.00,,,0.00,meteohub,2013-05-07 05:32:00,
2013-05-07 00:37:00,58.8,56.8,29.99,WSW,239,0.0,2.0,93,0.00,,,0.00,meteohub,2013-05-07 05:37:00,
2013-05-07 00:42:00,58.8,56.8,29.99,WSW,239,0.0,3.0,93,0.00,,,0.00,meteohub,2013-05-07 05:42:00,
2013-05-07 00:47:00,58.8,56.8,29.99,WSW,239,0.0,3.0,93,0.00,,,0.00,meteohub,2013-05-07 05:47:00,
2013-05-07 00:52:00,58.6,56.7,29.99,WSW,239,0.0,2.0,93,0.00,,,0.00,meteohub,2013-05-07 05:52:00,
2013-05-07 00:57:00,58.5,56.5,29.99,WSW,239,0.0,0.0,93,0.00,,,0.00,meteohub,2013-05-07 05:57:00,
2013-05-07 01:02:00,58.5,56.5,29.99,WSW,239,0.0,0.0,93,0.00,,,0.00,meteohub,2013-05-07 06:02:00,
2013-05-07 01:07:00,58.3,56.3,29.99,WSW,239,0.0,0.0,93,0.00,,,0.00,meteohub,2013-05-07 06:07:00,
2013-05-07 01:12:00,58.1,56.3,29.99,WSW,239,0.0,0.0,94,0.00,,,0.00,meteohub,2013-05-07 06:12:00,
2013-05-07 01:17:00,57.9,56.1,29.99,WSW,239,0.0,0.0,94,0.00,,,0.00,meteohub,2013-05-07 06:17:00,
2013-05-07 01:22:00,57.7,55.9,29.99,WSW,239,0.0,0.0,94,0.00,,,0.00,meteohub,2013-05-07 06:22:00,
2013-05-07 01:27:00,57.6,56.1,29.99,WSW,239,0.0,0.0,95,0.00,,,0.00,meteohub,2013-05-07 06:27:00,
2013-05-07 01:32:00,57.6,56.1,29.98,WSW,239,0.0,0.0,95,0.00,,,0.00,meteohub,2013-05-07 06:32:00,
2013-05-07 01:37:00,57.4,55.9,29.99,WSW,239,0.0,0.0,95,0.00,,,0.00,meteohub,2013-05-07 06:37:00,
2013-05-07 01:42:00,57.4,55.9,29.99,WSW,239,0.0,0.0,95,0.00,,,0.00,meteohub,2013-05-07 06:42:00,
2013-05-07 01:47:00,57.2,56.1,29.99,WSW,239,0.0,0.0,96,0.00,,,0.00,meteohub,2013-05-07 06:47:00,
2013-05-07 01:52:00,57.2,56.1,29.99,WSW,239,0.0,0.0,96,0.00,,,0.00,meteohub,2013-05-07 06:52:00,
2013-05-07 01:57:00,57.0,55.9,29.99,WSW,239,0.0,0.0,96,0.00,,,0.00,meteohub,2013-05-07 06:57:00,
2013-05-07 02:02:00,57.0,55.9,29.98,WSW,239,0.0,0.0,96,0.00,,,0.00,meteohub,2013-05-07 07:02:00,
2013-05-07 02:07:00,56.8,55.8,29.98,WSW,239,0.0,0.0,96,0.00,,,0.00,meteohub,2013-05-07 07:07:00,
2013-05-07 02:12:00,56.8,55.9,29.98,WSW,239,0.0,0.0,97,0.00,,,0.00,meteohub,2013-05-07 07:12:00,
2013-05-07 02:17:00,56.8,55.8,29.98,WSW,239,0.0,0.0,96,0.00,,,0.00,meteohub,2013-05-07 07:17:00,
2013-05-07 02:22:00,56.7,55.6,29.98,WSW,239,0.0,0.0,96,0.00,,,0.00,meteohub,2013-05-07 07:22:00,
2013-05-07 02:27:00,56.7,55.6,29.98,WSW,239,2.0,0.0,96,0.00,,,0.00,meteohub,2013-05-07 07:27:00,
2013-05-07 02:32:00,56.5,55.6,29.98,WSW,239,0.0,2.0,97,0.00,,,0.00,meteohub,2013-05-07 07:32:00,
2013-05-07 02:37:00,56.5,55.6,29.98,WSW,239,0.0,2.0,97,0.00,,,0.00,meteohub,2013-05-07 07:37:00,
2013-05-07 02:42:00,56.3,55.4,29.98,WSW,239,0.0,2.0,97,0.00,,,0.00,meteohub,2013-05-07 07:42:00,
2013-05-07 02:47:00,56.1,55.2,29.98,WSW,239,0.0,0.0,97,0.00,,,0.00,meteohub,2013-05-07 07:47:00,
2013-05-07 02:52:00,56.1,55.2,29.98,WSW,239,0.0,0.0,97,0.00,,,0.00,meteohub,2013-05-07 07:52:00,
2013-05-07 02:57:00,55.9,55.0,29.98,WSW,239,0.0,0.0,97,0.00,,,0.00,meteohub,2013-05-07 07:57:00,
2013-05-07 03:02:00,55.9,55.0,29.98,WSW,239,0.0,0.0,97,0.00,,,0.00,meteohub,2013-05-07 08:02:00,
2013-05-07 03:07:00,55.9,55.0,29.98,WSW,239,0.0,0.0,97,0.00,,,0.00,meteohub,2013-05-07 08:07:00,
2013-05-07 03:12:00,55.8,54.9,29.98,WSW,239,0.0,0.0,97,0.00,,,0.00,meteohub,2013-05-07 08:12:00,
2013-05-07 03:18:00,55.8,54.9,29.99,WSW,239,0.0,0.0,97,0.00,,,0.00,meteohub,2013-05-07 08:18:00,
2013-05-07 03:23:00,55.8,54.9,29.99,WSW,239,0.0,0.0,97,0.00,,,0.00,meteohub,2013-05-07 08:23:00,
2013-05-07 03:28:00,55.6,54.7,29.99,WSW,239,0.0,0.0,97,0.00,,,0.00,meteohub,2013-05-07 08:28:00,
2013-05-07 03:33:00,55.6,54.7,29.99,WSW,239,0.0,0.0,97,0.00,,,0.00,meteohub,2013-05-07 08:33:00,
2013-05-07 03:38:00,55.6,54.7,29.99,WSW,239,0.0,0.0,97,0.00,,,0.00,meteohub,2013-05-07 08:38:00,
2013-05-07 03:43:00,55.6,55.0,29.99,WSW,239,0.0,0.0,98,0.00,,,0.00,meteohub,2013-05-07 08:43:00,
2013-05-07 03:48:00,55.6,55.0,29.99,WSW,239,0.0,0.0,98,0.00,,,0.00,meteohub,2013-05-07 08:48:00,
2013-05-07 03:53:00,55.6,55.0,29.99,WSW,239,0.0,0.0,98,0.00,,,0.00,meteohub,2013-05-07 08:53:00,
2013-05-07 03:58:00,55.6,55.0,29.99,WSW,239,0.0,0.0,98,0.00,,,0.00,meteohub,2013-05-07 08:58:00,
2013-05-07 04:03:00,55.6,55.0,29.99,WSW,239,0.0,0.0,98,0.00,,,0.00,meteohub,2013-05-07 09:03:00,
2013-05-07 04:08:00,55.6,55.0,29.99,WSW,239,0.0,0.0,98,0.00,,,0.00,meteohub,2013-05-07 09:08:00,
2013-05-07 04:13:00,55.6,55.0,30.00,WSW,239,0.0,0.0,98,0.00,,,0.00,meteohub,2013-05-07 09:13:00,
2013-05-07 04:18:00,55.8,55.2,30.00,WSW,239,0.0,2.0,98,0.00,,,0.00,meteohub,2013-05-07 09:18:00,
2013-05-07 04:23:00,55.8,55.2,30.00,WSW,239,0.0,2.0,98,0.00,,,0.00,meteohub,2013-05-07 09:23:00,
2013-05-07 04:28:00,55.6,55.0,30.00,WSW,239,0.0,2.0,98,0.00,,,0.00,meteohub,2013-05-07 09:28:00,
2013-05-07 04:33:00,55.6,55.0,30.00,WSW,239,0.0,2.0,98,0.00,,,0.00,meteohub,2013-05-07 09:33:00,
2013-05-07 04:38:00,55.4,54.9,30.00,WSW,239,0.0,1.0,98,0.00,,,0.00,meteohub,2013-05-07 09:38:00,
2013-05-07 04:43:00,55.2,54.7,30.00,WSW,239,0.0,1.0,98,0.00,,,0.00,meteohub,2013-05-07 09:43:00,
2013-05-07 04:48:00,55.0,54.5,30.00,WSW,239,0.0,1.0,98,0.00,,,0.00,meteohub,2013-05-07 09:48:00,
2013-05-07 04:53:00,55.0,54.5,30.00,WSW,239,0.0,0.0,98,0.00,,,0.00,meteohub,2013-05-07 09:53:00,
2013-05-07 04:58:00,54.9,54.3,30.00,WSW,239,0.0,2.0,98,0.00,,,0.00,meteohub,2013-05-07 09:58:00,
2013-05-07 05:03:00,54.9,54.3,30.00,WSW,239,0.0,2.0,98,0.00,,,0.00,meteohub,2013-05-07 10:03:00,
2013-05-07 05:08:00,54.7,54.1,30.00,WSW,239,0.0,2.0,98,0.00,,,0.00,meteohub,2013-05-07 10:08:00,
2013-05-07 05:13:00,54.7,54.1,30.00,WSW,239,0.0,0.0,98,0.00,,,0.00,meteohub,2013-05-07 10:13:00,
2013-05-07 05:18:00,54.5,54.0,30.00,WSW,239,0.0,0.0,98,0.00,,,0.00,meteohub,2013-05-07 10:18:00,
2013-05-07 05:23:00,54.3,53.8,30.00,WSW,239,0.0,0.0,98,0.00,,,0.00,meteohub,2013-05-07 10:23:00,
2013-05-07 05:28:00,54.3,53.8,30.00,WSW,239,0.0,0.0,98,0.00,,,0.00,meteohub,2013-05-07 10:28:00,
2013-05-07 05:33:00,54.3,53.8,30.00,WSW,239,0.0,0.0,98,0.00,,,0.00,meteohub,2013-05-07 10:33:00,
2013-05-07 05:38:00,54.1,53.6,30.01,WSW,239,0.0,1.0,98,0.00,,,0.00,meteohub,2013-05-07 10:38:00,
2013-05-07 05:43:00,54.1,53.6,30.01,WSW,239,0.0,1.0,98,0.00,,,0.00,meteohub,2013-05-07 10:43:00,
2013-05-07 05:48:00,54.1,53.6,30.01,WSW,239,0.0,1.0,98,0.00,,,0.00,meteohub,2013-05-07 10:48:00,
2013-05-07 05:53:00,54.1,53.6,30.01,WSW,239,0.0,0.0,98,0.00,,,0.00,meteohub,2013-05-07 10:53:00,
2013-05-07 05:58:00,54.0,53.4,30.01,WSW,239,0.0,0.0,98,0.00,,,0.00,meteohub,2013-05-07 10:58:00,
2013-05-07 06:03:00,54.0,53.4,30.01,WSW,239,0.0,0.0,98,0.00,,,0.00,meteohub,2013-05-07 11:03:00,
2013-05-07 06:08:00,53.8,53.2,30.01,WSW,239,0.0,0.0,98,0.00,,,0.00,meteohub,2013-05-07 11:08:00,
2013-05-07 06:13:00,54.0,53.4,30.02,WSW,239,0.0,0.0,98,0.00,,,0.00,meteohub,2013-05-07 11:13:00,
2013-05-07 06:18:00,54.0,53.4,30.02,WSW,239,0.0,0.0,98,0.00,,,0.00,meteohub,2013-05-07 11:18:00,
2013-05-07 06:23:00,54.1,53.8,30.02,WSW,239,0.0,0.0,99,0.00,,,0.00,meteohub,2013-05-07 11:23:00,
2013-05-07 06:28:00,54.3,54.0,30.02,WSW,239,0.0,0.0,99,0.00,,,0.00,meteohub,2013-05-07 11:28:00,
2013-05-07 06:33:00,54.7,54.3,30.02,WSW,239,0.0,0.0,99,0.00,,,0.00,meteohub,2013-05-07 11:33:00,
2013-05-07 06:38:00,54.9,54.5,30.02,WSW,239,0.0,0.0,99,0.00,,,0.00,meteohub,2013-05-07 11:38:00,
2013-05-07 06:44:00,55.0,54.7,30.03,WSW,239,0.0,0.0,99,0.00,,,0.00,meteohub,2013-05-07 11:44:00,
2013-05-07 06:49:00,55.4,55.0,30.03,WSW,239,0.0,0.0,99,0.00,,,0.00,meteohub,2013-05-07 11:49:00,
2013-05-07 06:54:00,55.9,55.6,30.03,WSW,239,0.0,0.0,99,0.00,,,0.00,meteohub,2013-05-07 11:54:00,
2013-05-07 06:59:00,56.5,56.1,30.03,WSW,239,0.0,0.0,99,0.00,,,0.00,meteohub,2013-05-07 11:59:00,
2013-05-07 07:04:00,56.7,56.3,30.03,WSW,239,0.0,0.0,99,0.00,,,0.00,meteohub,2013-05-07 12:04:00,
2013-05-07 07:09:00,56.8,56.5,30.03,WSW,239,0.0,0.0,99,0.00,,,0.00,meteohub,2013-05-07 12:09:00,
2013-05-07 07:14:00,56.8,56.5,30.03,WSW,239,0.0,0.0,99,0.00,,,0.00,meteohub,2013-05-07 12:14:00,
2013-05-07 07:19:00,57.0,56.7,30.03,WSW,239,0.0,0.0,99,0.00,,,0.00,meteohub,2013-05-07 12:19:00,
2013-05-07 07:24:00,57.0,56.7,30.03,SW,224,0.0,0.0,99,0.00,,,0.00,meteohub,2013-05-07 12:24:00,
2013-05-07 07:29:00,57.4,57.0,30.03,SW,224,0.0,1.0,99,0.00,,,0.00,meteohub,2013-05-07 12:29:00,
2013-05-07 07:34:00,57.6,57.2,30.03,SW,224,0.0,1.0,99,0.00,,,0.00,meteohub,2013-05-07 12:34:00,
2013-05-07 07:39:00,57.7,57.4,30.03,SW,224,0.0,0.0,99,0.00,,,0.00,meteohub,2013-05-07 12:39:00,
2013-05-07 07:44:00,57.9,57.6,30.03,SW,224,0.0,0.0,99,0.00,,,0.00,meteohub,2013-05-07 12:44:00,
2013-05-07 07:49:00,58.1,57.7,30.04,SW,224,0.0,0.0,99,0.00,,,0.00,meteohub,2013-05-07 12:49:00,
2013-05-07 07:54:00,58.5,58.1,30.04,SW,224,0.0,0.0,99,0.00,,,0.00,meteohub,2013-05-07 12:54:00,
2013-05-07 07:59:00,58.6,58.3,30.04,SW,224,0.0,0.0,99,0.00,,,0.00,meteohub,2013-05-07 12:59:00,
2013-05-07 08:04:00,58.8,58.5,30.04,SW,224,0.0,0.0,99,0.00,,,0.00,meteohub,2013-05-07 13:04:00,
2013-05-07 08:09:00,58.8,58.5,30.04,SW,224,1.0,0.0,99,0.00,,,0.00,meteohub,2013-05-07 13:09:00,
2013-05-07 08:14:00,59.2,58.8,30.04,SW,224,0.0,1.0,99,0.00,,,0.00,meteohub,2013-05-07 13:14:00,
2013-05-07 08:19:00,59.5,59.2,30.05,SW,224,0.0,1.0,99,0.00,,,0.00,meteohub,2013-05-07 13:19:00,
2013-05-07 08:24:00,59.9,59.5,30.05,SW,224,0.0,1.0,99,0.00,,,0.00,meteohub,2013-05-07 13:24:00,
2013-05-07 08:29:00,60.4,60.1,30.05,SW,224,1.0,1.0,99,0.00,,,0.00,meteohub,2013-05-07 13:29:00,
2013-05-07 08:34:00,60.6,60.1,30.05,SW,224,0.0,2.0,98,0.00,,,0.00,meteohub,2013-05-07 13:34:00,
2013-05-07 08:39:00,61.5,60.4,30.05,SW,225,3.0,3.0,96,0.00,,,0.00,meteohub,2013-05-07 13:39:00,
2013-05-07 08:44:00,62.4,60.6,30.05,SW,225,0.0,3.0,94,0.00,,,0.00,meteohub,2013-05-07 13:44:00,
2013-05-07 08:49:00,63.5,60.8,30.05,SW,225,1.0,3.0,91,0.00,,,0.00,meteohub,2013-05-07 13:49:00,
2013-05-07 08:54:00,64.6,61.0,30.05,SW,224,2.0,3.0,88,0.00,,,0.00,meteohub,2013-05-07 13:54:00,
2013-05-07 08:59:00,65.3,60.6,30.05,SW,224,2.0,3.0,85,0.00,,,0.00,meteohub,2013-05-07 13:59:00,
2013-05-07 09:04:00,66.4,60.8,30.05,SW,224,0.0,4.0,82,0.00,,,0.00,meteohub,2013-05-07 14:04:00,
2013-05-07 09:09:00,67.3,61.2,30.05,SW,224,1.0,4.0,81,0.00,,,0.00,meteohub,2013-05-07 14:09:00,
2013-05-07 09:14:00,67.8,61.7,30.06,SW,224,2.0,4.0,81,0.00,,,0.00,meteohub,2013-05-07 14:14:00,
2013-05-07 09:19:00,68.2,61.7,30.06,SW,224,1.0,4.0,80,0.00,,,0.00,meteohub,2013-05-07 14:19:00,
2013-05-07 09:24:00,68.5,61.3,30.06,SSW,211,2.0,4.0,78,0.00,,,0.00,meteohub,2013-05-07 14:24:00,
2013-05-07 09:29:00,69.1,61.5,30.06,SSW,193,1.0,4.0,77,0.00,,,0.00,meteohub,2013-05-07 14:29:00,
2013-05-07 09:34:00,70.0,61.7,30.06,SSW,192,0.0,5.0,75,0.00,,,0.00,meteohub,2013-05-07 14:34:00,
2013-05-07 09:39:00,71.1,61.5,30.06,SE,139,1.0,5.0,72,0.00,,,0.00,meteohub,2013-05-07 14:39:00,
2013-05-07 09:44:00,72.1,62.2,30.06,SE,139,0.0,4.0,71,0.00,,,0.00,meteohub,2013-05-07 14:44:00,
2013-05-07 09:49:00,73.0,61.5,30.06,SW,219,0.0,4.0,67,0.00,,,0.00,meteohub,2013-05-07 14:49:00,
2013-05-07 09:54:00,73.9,60.6,30.06,SE,131,3.0,4.0,63,0.00,,,0.00,meteohub,2013-05-07 14:54:00,
2013-05-07 09:59:00,74.1,59.7,30.06,East,96,1.0,4.0,61,0.00,,,0.00,meteohub,2013-05-07 14:59:00,
2013-05-07 10:04:00,74.5,60.1,30.06,East,96,1.0,5.0,61,0.00,,,0.00,meteohub,2013-05-07 15:04:00,
2013-05-07 10:09:00,75.0,59.7,30.06,SSW,209,0.0,5.0,59,0.00,,,0.00,meteohub,2013-05-07 15:09:00,
2013-05-07 10:14:00,75.4,58.6,30.06,NW,321,1.0,3.0,56,0.00,,,0.00,meteohub,2013-05-07 15:14:00,
2013-05-07 10:19:00,75.7,58.5,30.06,NW,311,0.0,3.0,55,0.00,,,0.00,meteohub,2013-05-07 15:19:00,
2013-05-07 10:24:00,76.3,59.0,30.06,WNW,296,2.0,3.0,55,0.00,,,0.00,meteohub,2013-05-07 15:24:00,
2013-05-07 10:29:00,76.5,59.5,30.06,ENE,73,3.0,3.0,56,0.00,,,0.00,meteohub,2013-05-07 15:29:00,
2013-05-07 10:34:00,75.9,59.2,30.06,ESE,119,1.0,4.0,56,0.00,,,0.00,meteohub,2013-05-07 15:34:00,
2013-05-07 10:39:00,75.7,59.9,30.06,SSE,149,0.0,7.0,58,0.00,,,0.00,meteohub,2013-05-07 15:39:00,
2013-05-07 10:45:00,76.3,59.9,30.06,North,355,3.0,7.0,57,0.00,,,0.00,meteohub,2013-05-07 15:45:00,
2013-05-07 10:50:00,75.9,59.5,30.06,WNW,292,4.0,5.0,57,0.00,,,0.00,meteohub,2013-05-07 15:50:00,
2013-05-07 10:55:00,75.0,59.7,30.06,NW,304,1.0,6.0,59,0.00,,,0.00,meteohub,2013-05-07 15:55:00,
2013-05-07 11:00:00,75.4,60.1,30.06,North,349,2.0,6.0,59,0.00,,,0.00,meteohub,2013-05-07 16:00:00,
2013-05-07 11:05:00,75.7,61.3,30.06,NW,323,2.0,6.0,61,0.00,,,0.00,meteohub,2013-05-07 16:05:00,
2013-05-07 11:10:00,75.9,61.0,30.06,East,94,0.0,4.0,60,0.00,,,0.00,meteohub,2013-05-07 16:10:00,
2013-05-07 11:15:00,76.3,61.9,30.06,NNE,13,2.0,6.0,61,0.00,,,0.00,meteohub,2013-05-07 16:15:00,
2013-05-07 11:20:00,76.5,60.6,30.06,North,355,2.0,6.0,58,0.00,,,0.00,meteohub,2013-05-07 16:20:00,
2013-05-07 11:25:00,76.6,60.8,30.06,NW,321,1.0,7.0,58,0.00,,,0.00,meteohub,2013-05-07 16:25:00,
2013-05-07 11:30:00,76.3,59.9,30.06,SSW,200,1.0,6.0,57,0.00,,,0.00,meteohub,2013-05-07 16:30:00,
2013-05-07 11:35:00,75.9,61.0,30.06,WNW,290,1.0,5.0,60,0.00,,,0.00,meteohub,2013-05-07 16:35:00,
2013-05-07 11:40:00,75.7,60.8,30.06,West,272,3.0,6.0,60,0.00,,,0.00,meteohub,2013-05-07 16:40:00,
2013-05-07 11:45:00,75.7,60.8,30.06,NE,44,2.0,6.0,60,0.00,,,0.00,meteohub,2013-05-07 16:45:00,
2013-05-07 11:50:00,76.3,60.4,30.06,West,279,3.0,6.0,58,0.00,,,0.00,meteohub,2013-05-07 16:50:00,
2013-05-07 11:55:00,75.9,60.6,30.05,South,169,4.0,6.0,59,0.00,,,0.00,meteohub,2013-05-07 16:55:00,
2013-05-07 12:00:00,76.5,60.6,30.05,NNW,346,2.0,6.0,58,0.00,,,0.00,meteohub,2013-05-07 17:00:00,
2013-05-07 12:05:00,76.8,59.9,30.05,NNW,339,4.0,6.0,56,0.00,,,0.00,meteohub,2013-05-07 17:05:00,
2013-05-07 12:10:00,76.8,60.4,30.05,West,265,1.0,6.0,57,0.00,,,0.00,meteohub,2013-05-07 17:10:00,
2013-05-07 12:15:00,77.4,59.9,30.05,West,263,4.0,6.0,55,0.00,,,0.00,meteohub,2013-05-07 17:15:00,
2013-05-07 12:20:00,77.0,60.6,30.04,North,355,5.0,7.0,57,0.00,,,0.00,meteohub,2013-05-07 17:20:00,
2013-05-07 12:25:00,77.2,59.7,30.05,NE,43,2.0,7.0,55,0.00,,,0.00,meteohub,2013-05-07 17:25:00,
2013-05-07 12:30:00,77.5,59.5,30.04,East,90,1.0,7.0,54,0.00,,,0.00,meteohub,2013-05-07 17:30:00,
2013-05-07 12:35:00,78.1,60.6,30.04,NNE,26,2.0,6.0,55,0.00,,,0.00,meteohub,2013-05-07 17:35:00,
2013-05-07 12:40:00,78.8,60.8,30.04,NNW,338,5.0,6.0,54,0.00,,,0.00,meteohub,2013-05-07 17:40:00,
2013-05-07 12:45:00,79.0,59.9,30.04,ENE,57,0.0,5.0,52,0.00,,,0.00,meteohub,2013-05-07 17:45:00,
2013-05-07 12:50:00,78.8,59.7,30.04,ENE,66,4.0,5.0,52,0.00,,,0.00,meteohub,2013-05-07 17:50:00,
2013-05-07 12:55:00,79.2,59.5,30.04,NE,53,3.0,6.0,51,0.00,,,0.00,meteohub,2013-05-07 17:55:00,
2013-05-07 13:00:00,78.4,59.4,30.04,WNW,284,8.0,10.0,52,0.00,,,0.00,meteohub,2013-05-07 18:00:00,
2013-05-07 13:05:00,77.7,60.3,30.04,West,276,7.0,10.0,55,0.00,,,0.00,meteohub,2013-05-07 18:05:00,
2013-05-07 13:10:00,77.7,59.2,30.04,NW,305,3.0,10.0,53,0.00,,,0.00,meteohub,2013-05-07 18:10:00,
2013-05-07 13:15:00,78.3,59.2,30.03,ENE,66,4.0,9.0,52,0.00,,,0.00,meteohub,2013-05-07 18:15:00,
2013-05-07 13:20:00,78.6,60.6,30.03,ENE,74,4.0,9.0,54,0.00,,,0.00,meteohub,2013-05-07 18:20:00,
2013-05-07 13:25:00,78.6,59.5,30.03,ENE,58,1.0,9.0,52,0.00,,,0.00,meteohub,2013-05-07 18:25:00,
2013-05-07 13:30:00,78.8,58.6,30.03,WNW,286,0.0,9.0,50,0.00,,,0.00,meteohub,2013-05-07 18:30:00,
2013-05-07 13:35:00,79.0,58.1,30.03,SW,216,5.0,9.0,49,0.00,,,0.00,meteohub,2013-05-07 18:35:00,
2013-05-07 13:40:00,79.2,59.5,30.03,WNW,292,4.0,8.0,51,0.00,,,0.00,meteohub,2013-05-07 18:40:00,
2013-05-07 13:45:00,78.6,59.0,30.03,West,274,5.0,7.0,51,0.00,,,0.00,meteohub,2013-05-07 18:45:00,
2013-05-07 13:50:00,78.3,59.7,30.02,NNE,31,1.0,9.0,53,0.00,,,0.00,meteohub,2013-05-07 18:50:00,
2013-05-07 13:55:00,78.3,59.2,30.02,ENE,62,3.0,9.0,52,0.00,,,0.00,meteohub,2013-05-07 18:55:00,
2013-05-07 14:00:00,78.3,59.2,30.02,East,86,1.0,9.0,52,0.00,,,0.00,meteohub,2013-05-07 19:00:00,
2013-05-07 14:05:00,79.0,59.4,30.02,WNW,285,6.0,6.0,51,0.00,,,0.00,meteohub,2013-05-07 19:05:00,
2013-05-07 14:10:00,79.3,60.3,30.02,NNW,328,4.0,7.0,52,0.00,,,0.00,meteohub,2013-05-07 19:10:00,
2013-05-07 14:15:00,79.3,61.2,30.02,West,281,5.0,8.0,54,0.00,,,0.00,meteohub,2013-05-07 19:15:00,
2013-05-07 14:20:00,79.9,60.1,30.01,WNW,291,2.0,8.0,51,0.00,,,0.00,meteohub,2013-05-07 19:20:00,
2013-05-07 14:25:00,79.5,60.4,30.01,NW,309,6.0,7.0,52,0.00,,,0.00,meteohub,2013-05-07 19:25:00,
2013-05-07 14:30:00,79.5,59.7,30.01,WSW,253,3.0,9.0,51,0.00,,,0.00,meteohub,2013-05-07 19:30:00,
2013-05-07 14:35:00,80.2,59.9,30.01,NW,311,7.0,9.0,50,0.00,,,0.00,meteohub,2013-05-07 19:35:00,
2013-05-07 14:40:00,80.8,58.6,30.01,SSW,209,3.0,9.0,47,0.00,,,0.00,meteohub,2013-05-07 19:40:00,
2013-05-07 14:45:00,80.2,58.8,30.01,West,277,8.0,8.0,48,0.00,,,0.00,meteohub,2013-05-07 19:45:00,
2013-05-07 14:51:00,79.9,60.6,30.01,West,259,3.0,9.0,52,0.00,,,0.00,meteohub,2013-05-07 19:51:00,
2013-05-07 14:56:00,79.7,58.8,30.01,West,281,8.0,9.0,49,0.00,,,0.00,meteohub,2013-05-07 19:56:00,
2013-05-07 15:01:00,79.2,59.5,30.00,West,274,0.0,9.0,51,0.00,,,0.00,meteohub,2013-05-07 20:01:00,
2013-05-07 15:06:00,79.3,58.5,30.00,West,279,4.0,9.0,49,0.00,,,0.00,meteohub,2013-05-07 20:06:00,
2013-05-07 15:11:00,79.9,59.0,30.00,WNW,296,4.0,9.0,49,0.00,,,0.00,meteohub,2013-05-07 20:11:00,
2013-05-07 15:16:00,80.1,59.2,30.00,WNW,292,2.0,8.0,49,0.00,,,0.00,meteohub,2013-05-07 20:16:00,
2013-05-07 15:21:00,79.9,57.9,29.99,WSW,247,2.0,9.0,47,0.00,,,0.00,meteohub,2013-05-07 20:21:00,
2013-05-07 15:26:00,79.9,59.0,29.99,West,267,4.0,9.0,49,0.00,,,0.00,meteohub,2013-05-07 20:26:00,
2013-05-07 15:31:00,79.9,59.5,29.99,West,273,4.0,8.0,50,0.00,,,0.00,meteohub,2013-05-07 20:31:00,
2013-05-07 15:36:00,79.9,58.5,29.99,SW,227,3.0,10.0,48,0.00,,,0.00,meteohub,2013-05-07 20:36:00,
2013-05-07 15:41:00,80.1,58.6,29.99,SSE,163,1.0,10.0,48,0.00,,,0.00,meteohub,2013-05-07 20:41:00,
2013-05-07 15:46:00,80.4,59.0,29.99,NW,322,5.0,10.0,48,0.00,,,0.00,meteohub,2013-05-07 20:46:00,
2013-05-07 15:51:00,80.2,58.8,29.99,West,264,3.0,9.0,48,0.00,,,0.00,meteohub,2013-05-07 20:51:00,
2013-05-07 15:56:00,80.2,58.1,29.99,WNW,291,3.0,9.0,47,0.00,,,0.00,meteohub,2013-05-07 20:56:00,
2013-05-07 16:01:00,80.2,58.1,29.99,WNW,288,5.0,9.0,47,0.00,,,0.00,meteohub,2013-05-07 21:01:00,
2013-05-07 16:06:00,80.6,59.2,29.99,West,259,3.0,9.0,48,0.00,,,0.00,meteohub,2013-05-07 21:06:00,
2013-05-07 16:11:00,81.1,59.0,29.99,NNW,329,9.0,9.0,47,0.00,,,0.00,meteohub,2013-05-07 21:11:00,
2013-05-07 16:16:00,81.3,59.2,29.99,West,272,4.0,10.0,47,0.00,,,0.00,meteohub,2013-05-07 21:16:00,
2013-05-07 16:21:00,81.5,58.1,29.98,West,279,3.0,11.0,45,0.00,,,0.00,meteohub,2013-05-07 21:21:00,
2013-05-07 16:26:00,81.9,57.2,29.98,West,277,2.0,11.0,43,0.00,,,0.00,meteohub,2013-05-07 21:26:00,
2013-05-07 16:31:00,81.9,57.7,29.99,WNW,288,7.0,11.0,44,0.00,,,0.00,meteohub,2013-05-07 21:31:00,
2013-05-07 16:36:00,81.7,58.3,29.99,West,268,4.0,9.0,45,0.00,,,0.00,meteohub,2013-05-07 21:36:00,
2013-05-07 16:41:00,81.1,58.5,29.99,West,259,5.0,12.0,46,0.00,,,0.00,meteohub,2013-05-07 21:41:00,
2013-05-07 16:46:00,81.1,59.0,29.98,West,270,4.0,12.0,47,0.00,,,0.00,meteohub,2013-05-07 21:46:00,
2013-05-07 16:51:00,81.3,57.9,29.98,NW,317,6.0,12.0,45,0.00,,,0.00,meteohub,2013-05-07 21:51:00,
2013-05-07 16:56:00,81.1,58.5,29.98,WNW,301,6.0,10.0,46,0.00,,,0.00,meteohub,2013-05-07 21:56:00,
2013-05-07 17:01:00,81.1,59.0,29.98,NW,306,4.0,10.0,47,0.00,,,0.00,meteohub,2013-05-07 22:01:00,
2013-05-07 17:06:00,81.0,58.8,29.98,WNW,287,4.0,10.0,47,0.00,,,0.00,meteohub,2013-05-07 22:06:00,
2013-05-07 17:11:00,80.1,58.6,29.98,WNW,284,3.0,9.0,48,0.00,,,0.00,meteohub,2013-05-07 22:11:00,
2013-05-07 17:16:00,79.7,58.3,29.98,NW,306,1.0,8.0,48,0.00,,,0.00,meteohub,2013-05-07 22:16:00,
2013-05-07 17:21:00,80.4,57.7,29.98,SSW,205,3.0,6.0,46,0.00,,,0.00,meteohub,2013-05-07 22:21:00,
2013-05-07 17:26:00,80.8,57.4,29.98,NW,304,2.0,6.0,45,0.00,,,0.00,meteohub,2013-05-07 22:26:00,
2013-05-07 17:31:00,79.9,57.2,29.98,WNW,288,6.0,8.0,46,0.00,,,0.00,meteohub,2013-05-07 22:31:00,
2013-05-07 17:36:00,79.2,57.2,29.98,West,269,3.0,9.0,47,0.00,,,0.00,meteohub,2013-05-07 22:36:00,
2013-05-07 17:41:00,79.2,57.7,29.98,WNW,299,2.0,9.0,48,0.00,,,0.00,meteohub,2013-05-07 22:41:00,
2013-05-07 17:46:00,79.2,58.3,29.98,WSW,244,0.0,6.0,49,0.00,,,0.00,meteohub,2013-05-07 22:46:00,
2013-05-07 17:51:00,79.2,59.0,29.98,NNE,14,2.0,5.0,50,0.00,,,0.00,meteohub,2013-05-07 22:51:00,
2013-05-07 17:56:00,79.2,60.1,29.98,NW,306,0.0,5.0,52,0.00,,,0.00,meteohub,2013-05-07 22:56:00,
2013-05-07 18:01:00,79.0,59.4,29.98,ENE,63,2.0,4.0,51,0.00,,,0.00,meteohub,2013-05-07 23:01:00,
2013-05-07 18:06:00,78.6,58.5,29.98,ENE,63,0.0,3.0,50,0.00,,,0.00,meteohub,2013-05-07 23:06:00,
2013-05-07 18:11:00,78.4,58.8,29.98,ENE,63,0.0,3.0,51,0.00,,,0.00,meteohub,2013-05-07 23:11:00,
2013-05-07 18:16:00,78.1,59.5,29.98,ENE,63,0.0,2.0,53,0.00,,,0.00,meteohub,2013-05-07 23:16:00,
2013-05-07 18:21:00,78.1,58.5,29.98,North,5,0.0,2.0,51,0.00,,,0.00,meteohub,2013-05-07 23:21:00,
2013-05-07 18:26:00,78.3,59.2,29.98,NE,47,0.0,3.0,52,0.00,,,0.00,meteohub,2013-05-07 23:26:00,
2013-05-07 18:31:00,78.6,59.5,29.98,NE,51,0.0,3.0,52,0.00,,,0.00,meteohub,2013-05-07 23:31:00,
2013-05-07 18:36:00,78.8,59.7,29.98,NE,53,0.0,3.0,52,0.00,,,0.00,meteohub,2013-05-07 23:36:00,
2013-05-07 18:41:00,79.0,59.4,29.98,NE,53,0.0,3.0,51,0.00,,,0.00,meteohub,2013-05-07 23:41:00,
2013-05-07 18:46:00,79.2,59.5,29.98,NNW,331,1.0,3.0,51,0.00,,,0.00,meteohub,2013-05-07 23:46:00,
2013-05-07 18:51:00,79.3,58.5,29.98,NNW,331,0.0,2.0,49,0.00,,,0.00,meteohub,2013-05-07 23:51:00,
2013-05-07 18:56:00,79.3,59.0,29.98,NNW,332,0.0,3.0,50,0.00,,,0.00,meteohub,2013-05-07 23:56:00,
2013-05-07 19:01:00,79.2,60.1,29.98,NNW,332,0.0,3.0,52,0.00,,,0.00,meteohub,2013-05-08 00:01:00,
2013-05-07 19:07:00,78.6,59.0,29.98,NNW,332,0.0,3.0,51,0.00,,,0.00,meteohub,2013-05-08 00:07:00,
2013-05-07 19:12:00,78.3,59.7,29.98,NNW,332,0.0,1.0,53,0.00,,,0.00,meteohub,2013-05-08 00:12:00,
2013-05-07 19:17:00,77.7,59.2,29.98,NNW,332,0.0,1.0,53,0.00,,,0.00,meteohub,2013-05-08 00:17:00,
2013-05-07 19:22:00,77.4,60.4,29.99,NNW,332,0.0,1.0,56,0.00,,,0.00,meteohub,2013-05-08 00:22:00,
2013-05-07 19:27:00,76.8,59.9,29.99,NNW,332,0.0,1.0,56,0.00,,,0.00,meteohub,2013-05-08 00:27:00,
2013-05-07 19:32:00,76.3,59.9,29.99,NNW,332,0.0,0.0,57,0.00,,,0.00,meteohub,2013-05-08 00:32:00,
2013-05-07 19:37:00,75.7,59.9,29.99,NNW,332,0.0,0.0,58,0.00,,,0.00,meteohub,2013-05-08 00:37:00,
2013-05-07 19:42:00,75.2,60.8,29.99,NNW,332,0.0,0.0,61,0.00,,,0.00,meteohub,2013-05-08 00:42:00,
2013-05-07 19:47:00,74.7,60.8,29.99,NNW,332,0.0,0.0,62,0.00,,,0.00,meteohub,2013-05-08 00:47:00,
2013-05-07 19:52:00,73.9,60.6,29.99,NNW,332,0.0,0.0,63,0.00,,,0.00,meteohub,2013-05-08 00:52:00,
2013-05-07 19:57:00,73.4,61.3,29.99,NNW,332,0.0,0.0,66,0.00,,,0.00,meteohub,2013-05-08 00:57:00,
2013-05-07 20:02:00,72.9,61.3,29.99,NNW,332,0.0,0.0,67,0.00,,,0.00,meteohub,2013-05-08 01:02:00,
2013-05-07 20:07:00,72.3,60.8,29.99,NNW,332,0.0,0.0,67,0.00,,,0.00,meteohub,2013-05-08 01:07:00,
2013-05-07 20:12:00,72.0,60.8,29.99,NNW,332,0.0,0.0,68,0.00,,,0.00,meteohub,2013-05-08 01:12:00,
2013-05-07 20:17:00,71.4,60.8,29.99,NNW,332,0.0,0.0,69,0.00,,,0.00,meteohub,2013-05-08 01:17:00,
2013-05-07 20:22:00,70.9,60.6,29.99,NNW,332,0.0,0.0,70,0.00,,,0.00,meteohub,2013-05-08 01:22:00,
2013-05-07 20:27:00,70.3,60.8,29.99,NNW,332,0.0,0.0,72,0.00,,,0.00,meteohub,2013-05-08 01:27:00,
2013-05-07 20:32:00,70.0,61.0,29.99,NNW,332,0.0,0.0,73,0.00,,,0.00,meteohub,2013-05-08 01:32:00,
2013-05-07 20:37:00,69.4,60.8,29.99,NNW,332,0.0,0.0,74,0.00,,,0.00,meteohub,2013-05-08 01:37:00,
2013-05-07 20:42:00,68.9,60.3,30.00,NNW,332,0.0,0.0,74,0.00,,,0.00,meteohub,2013-05-08 01:42:00,
2013-05-07 20:47:00,68.5,60.6,30.00,NNW,332,0.0,0.0,76,0.00,,,0.00,meteohub,2013-05-08 01:47:00,
2013-05-07 20:52:00,68.2,60.3,30.00,NNW,332,0.0,0.0,76,0.00,,,0.00,meteohub,2013-05-08 01:52:00,
2013-05-07 20:57:00,67.6,60.3,30.00,NNW,332,0.0,0.0,77,0.00,,,0.00,meteohub,2013-05-08 01:57:00,
2013-05-07 21:02:00,67.3,60.3,30.00,NNW,332,0.0,0.0,78,0.00,,,0.00,meteohub,2013-05-08 02:02:00,
2013-05-07 21:07:00,66.9,60.6,30.00,NNW,332,0.0,0.0,80,0.00,,,0.00,meteohub,2013-05-08 02:07:00,
2013-05-07 21:12:00,66.6,60.6,30.00,NNW,332,0.0,0.0,81,0.00,,,0.00,meteohub,2013-05-08 02:12:00,
2013-05-07 21:17:00,66.4,60.4,30.01,NNW,332,0.0,0.0,81,0.00,,,0.00,meteohub,2013-05-08 02:17:00,
2013-05-07 21:22:00,66.0,60.1,30.01,NNW,332,0.0,0.0,81,0.00,,,0.00,meteohub,2013-05-08 02:22:00,
2013-05-07 21:27:00,65.7,60.1,30.01,NNW,332,1.0,0.0,82,0.00,,,0.00,meteohub,2013-05-08 02:27:00,
2013-05-07 21:32:00,65.5,59.9,30.01,SSW,202,0.0,4.0,82,0.00,,,0.00,meteohub,2013-05-08 02:32:00,
2013-05-07 21:37:00,65.7,60.4,30.01,SSW,202,0.0,4.0,83,0.00,,,0.00,meteohub,2013-05-08 02:37:00,
2013-05-07 21:42:00,65.8,60.6,30.01,East,101,1.0,4.0,83,0.00,,,0.00,meteohub,2013-05-08 02:42:00,
2013-05-07 21:47:00,66.0,60.1,30.02,ESE,107,0.0,4.0,81,0.00,,,0.00,meteohub,2013-05-08 02:47:00,
2013-05-07 21:52:00,66.4,60.4,30.02,ESE,107,0.0,3.0,81,0.00,,,0.00,meteohub,2013-05-08 02:52:00,
2013-05-07 21:57:00,66.4,60.4,30.02,ESE,107,0.0,2.0,81,0.00,,,0.00,meteohub,2013-05-08 02:57:00,
2013-05-07 22:02:00,66.4,60.4,30.02,ESE,107,0.0,2.0,81,0.00,,,0.00,meteohub,2013-05-08 03:02:00,
2013-05-07 22:07:00,66.2,60.3,30.03,ESE,107,0.0,1.0,81,0.00,,,0.00,meteohub,2013-05-08 03:07:00,
2013-05-07 22:12:00,66.0,60.1,30.03,ESE,107,0.0,1.0,81,0.00,,,0.00,meteohub,2013-05-08 03:12:00,
2013-05-07 22:17:00,65.8,59.9,30.03,ESE,107,0.0,1.0,81,0.00,,,0.00,meteohub,2013-05-08 03:17:00,
2013-05-07 22:22:00,65.8,59.9,30.03,ESE,107,0.0,1.0,81,0.00,,,0.00,meteohub,2013-05-08 03:22:00,
2013-05-07 22:27:00,65.7,59.7,30.03,ESE,107,0.0,1.0,81,0.00,,,0.00,meteohub,2013-05-08 03:27:00,
2013-05-07 22:32:00,65.7,59.7,30.03,ESE,107,0.0,1.0,81,0.00,,,0.00,meteohub,2013-05-08 03:32:00,
2013-05-07 22:37:00,65.5,59.9,30.03,ESE,107,0.0,1.0,82,0.00,,,0.00,meteohub,2013-05-08 03:37:00,
2013-05-07 22:42:00,65.1,59.9,30.04,ESE,107,0.0,0.0,83,0.00,,,0.00,meteohub,2013-05-08 03:42:00,
2013-05-07 22:47:00,64.9,59.7,30.04,ESE,107,0.0,0.0,83,0.00,,,0.00,meteohub,2013-05-08 03:47:00,
2013-05-07 22:52:00,64.8,59.9,30.04,ESE,107,0.0,0.0,84,0.00,,,0.00,meteohub,2013-05-08 03:52:00,
2013-05-07 22:57:00,64.6,59.9,30.04,ESE,107,0.0,0.0,85,0.00,,,0.00,meteohub,2013-05-08 03:57:00,
2013-05-07 23:01:00,64.4,59.7,30.04,ESE,107,0.0,0.0,85,0.00,,,0.00,meteohub,2013-05-08 04:01:00,
2013-05-07 23:06:00,64.0,59.7,30.04,ESE,107,0.0,0.0,86,0.00,,,0.00,meteohub,2013-05-08 04:06:00,
2013-05-07 23:11:00,63.9,59.5,30.04,ESE,107,0.0,0.0,86,0.00,,,0.00,meteohub,2013-05-08 04:11:00,
2013-05-07 23:16:00,63.9,59.5,30.04,ESE,107,0.0,0.0,86,0.00,,,0.00,meteohub,2013-05-08 04:16:00,
2013-05-07 23:21:00,63.7,59.4,30.04,ESE,107,0.0,0.0,86,0.00,,,0.00,meteohub,2013-05-08 04:21:00,
2013-05-07 23:26:00,63.7,60.1,30.04,ESE,107,0.0,0.0,88,0.00,,,0.00,meteohub,2013-05-08 04:26:00,
2013-05-07 23:31:00,63.5,59.9,30.04,ESE,107,0.0,0.0,88,0.00,,,0.00,meteohub,2013-05-08 04:31:00,
2013-05-07 23:36:00,63.5,59.5,30.04,ESE,107,0.0,0.0,87,0.00,,,0.00,meteohub,2013-05-08 04:36:00,
2013-05-07 23:41:00,63.3,59.4,30.04,ESE,107,0.0,0.0,87,0.00,,,0.00,meteohub,2013-05-08 04:41:00,
2013-05-07 23:46:00,63.3,59.4,30.04,ESE,107,0.0,0.0,87,0.00,,,0.00,meteohub,2013-05-08 04:46:00,
2013-05-07 23:51:00,63.1,59.5,30.05,ESE,107,0.0,0.0,88,0.00,,,0.00,meteohub,2013-05-08 04:51:00,
2013-05-07 23:56:00,63.1,59.5,30.04,ESE,107,0.0,0.0,88,0.00,,,0.00,meteohub,2013-05-08 04:56:00,